Location: Allos
(44.2333°N, 6.6333°E)
Time: 08:20:54
(UTC+00:00)

YUBILEINY - Visible Passes

Search period start: 09 May 2021 00:00
Search period end: 19 May 2021 00:00
Orbit: 1477 x 1510 km, 82.5° (Epoch: 08 May)

Date Brightness Start Highest point End Pass type
(mag) Time Alt. Az. Time Alt. Az. Time Alt. Az.
09 May ? 01:21:59 10° NNW 01:30:30 61° W 01:34:31 34° SSW visible
09 May ? 03:23:21 10° WNW 03:25:20 11° WNW 03:27:20 10° W visible
09 May ? 22:36:59 10° NNE 22:42:41 19° ENE 22:48:23 10° E visible
10 May ? 00:32:15 10° N 00:41:02 81° E 00:45:06 37° SSE visible
10 May ? 02:30:31 10° NNW 02:36:47 23° WNW 02:41:00 16° WSW visible
10 May ? 23:42:50 10° N 23:51:13 48° ENE 23:55:43 28° SE visible
11 May ? 01:39:55 10° NNW 01:47:52 41° W 01:51:36 28° SW visible
11 May ? 22:53:48 10° N 23:01:01 28° ENE 23:06:21 16° ESE visible
12 May ? 00:49:56 10° NNW 00:58:37 72° W 01:02:14 40° SSW visible
12 May ? 02:49:46 10° NW 02:53:44 14° WNW 02:57:42 10° W visible
12 May ? 22:05:33 10° NNE 22:10:22 16° NE 22:15:11 10° E visible
13 May ? 00:00:18 10° N 00:09:03 69° E 00:12:53 38° SSE visible
13 May ? 01:58:10 10° NNW 02:05:04 27° W 02:08:47 20° WSW visible
13 May ? 23:10:59 10° N 23:19:07 41° ENE 23:23:34 25° ESE visible
14 May ? 01:07:48 10° NNW 01:16:03 49° W 01:19:27 34° SW visible
14 May ? 22:22:06 10° NNE 22:28:48 23° ENE 22:34:14 13° ESE visible
15 May ? 00:17:55 10° N 00:26:42 83° W 00:30:08 43° S visible
15 May ? 02:16:57 10° NW 02:22:05 17° WNW 02:26:02 13° WSW visible
15 May ? 21:34:23 10° NNE 21:38:00 13° NE 21:41:36 10° ENE visible
15 May ? 23:28:23 10° N 23:37:02 59° ENE 23:40:50 36° SE visible
16 May ? 01:25:54 10° NNW 01:33:18 32° W 01:36:43 25° WSW visible
16 May ? 22:39:10 10° N 22:47:00 35° ENE 22:51:32 22° ESE visible
17 May ? 00:35:43 10° NNW 00:44:12 57° W 00:47:26 39° SSW visible
17 May ? 21:50:29 10° NNE 21:56:32 20° ENE 22:02:16 11° ESE visible
17 May ? 23:45:57 10° N 23:54:46 85° E 23:58:10 44° SSE visible
18 May ? 01:44:24 10° NNW 01:50:24 21° WNW 01:54:04 16° WSW visible
18 May ? 21:04:04 10° NE 21:05:35 10° NE 21:07:06 10° ENE visible
18 May ? 22:56:30 10° N 23:04:59 51° ENE 23:08:55 32° SE visible
